User: anonymous   Login
Location: Darlington Observatory
(36.4817°N, 105.8156°W)
Time: 03:54:09
(UTC-06:00)
Language:

MOS 1 - Orbit

View from above orbital plane
View from above orbital plane
View from above satellite
View from above satellite

Ground track
Ground track

The orbit data is extracted from the following two-line orbital elements,

1 17527U 87018A   15147.57805618  .00000184  00000-0  15000-3 0  9996
2 17527 099.2477 138.2582 0008494 194.3390 270.9261 14.02385618444103
Epoch (UTC): 27 May 2015 13:52:24
Eccentricity: 0.0008494
inclination: 99.2477°
perigee height: 879 km
apogee height: 892 km
right ascension of ascending node: 138.2582°
argument of perigee: 194.3390°
revolutions per day: 14.02385618
mean anomaly at epoch: 270.9261°
orbit number at epoch: 44410

The dashed part of the orbit path shows where the satellite is in the earth's shadow,  

DLR